"Pseudo-MPEC" for P11OlUf

Created 2023 Nov 30 6:22:04 UT using Find_Orb

Click here for an explanation of pseudo-MPECs

 
 Astrometry: 
     P11OlUf* C2023 11 18;+F^5Vn;^W*p8%g;EAJKrA-mja2]V=]\UM8IhQZLmPeLqZr8^C0pF51
     P11OlUf  C2023 11 18.Y(E5y)qTV/WD:7J-A548I,P-);0GYZ0lbU';8xIHaFqqc8,wP0]F51
     P11OlUf  C2023 11 18Z=@u'B.aR#a'rYAu!Iwr@:0l:6)u.JJ5lYQx3.9o'mNHpI$?v_oaF51
     P11OlUf  C2023 11 18ea!VDvdnGy:Z*lm9,b@ykBonFhowM^m%9II63r7ffqqY0?[PrLLBF51
     P11OlUf  C2023 11 18tM0CJ8ab+f!TjkA(-(S$;rAstrometry4ZSSYEuSr+wvC^^(%96IF51
     P11OlUf KC2023 11 19+We3eGgCc92wlPP%redacted;O%XclickGeUCbn[ksu'B9am$.4GH21
     P11OlUf KC2023 11 19KMYIsdSxmYW;xf8:Zt_SIAO)Z6v^y1_J8sheres27Md*`AE8b8RBH21
     P11OlUf KC2023 11 19f8P53Ympn+IYjsr=G^TN_hD^`P2($2+7l#*r5eQZ8#Q_;,3E!][4H21
     P11OlUf KC2023 11 19n^Prq\0=_nY1*x=6for@oP6U=.?J^LHduexplanation58+RRSe=H21

Station data:
(F51) Pan-STARRS 1, Haleakala  (N20.707234 W156.255910)  US/Hawaii.
   Observers J. Bulger, T. Lowe, A. Schultz, M. Willman. Measurers K.
   Chambers, S. Chastel, T. de Boer, L. Denneau, J. Fairlamb, H. Flewelling,
   M. Huber, C.-C. Lin, E. Magnier, Y. Ramanjooloo, R. Wainscoat, R. Weryk.
   1.8-m Ritchey-Chrétien + CCD.
(H21) Astronomical Research Observatory, Westfield  (N39.483054 W87.968270)
   US/Illinois.  Observer R. Holmes. Measurers S. Foglia, L. Buzzi, T.
   Linder, R. Holmes. 0.76-m f/3.0 astrograph + CCD0.81-m f/4.0 astrograph +
   CCD0.61-m f/4.5 astrograph + CCD0.40-m f/5.32 astrograph + CCD.

Orbital elements:  P11OlUf
   Perihelion 2023 Sep 18.64145 +/- 3.57 TT = 15:23:41 (JD 2460206.14145)
Epoch 2023 Nov 19.0 TT = JDT 2460267.5   Earth MOID: 0.0153   Ma: 0.0296
M  15.84004707 +/- 7                (J2000 ecliptic)             AutoNEOCP
n   0.25815548 +/- 0.102            Peri.  304.90898 +/- 0.41
a   2.44276570 +/- 0.643            Node    42.72334 +/- 1.0
e   0.6300018 +/- 0.108             Incl.    3.54877 +/- 0.27
P   3.82                   H 23.97  G  0.15   U 11.2
q 0.90381890 +/- 0.0249    Q 3.98171249 +/- 1.31
From 9 observations 2023 Nov. 18-19 (17.4 hr); mean residual 0".12
Residuals in arcseconds: 
231118 F51  .05+  .06+    231118 F51  .20-  .09-    231119 H21  .10-  .12-    
231118 F51  .06-  .02+    231118 F51  .21+  .04+    231119 H21  .10+  .12-    
231118 F51  .00   .04-    231119 H21  .16-  .22+    231119 H21  .14+  .06+    

Ephemerides (geocentric):
Date (UTC) HH   RA             Dec           delta  r     elong  mag " sig PA
---- --------  ------------   ------------  ------ ------ -----  --- --------
2023 11 30 06  04 23 09.187   +27 27 45.74  .34461 1.3296 174.1 22.7  508  90
2023 11 30 07  04 23 05.645   +27 27 43.27  .34498 1.3299 174.1 22.7  511  90
2023 11 30 08  04 23 02.111   +27 27 40.79  .34536 1.3303 174.1 22.7  514  90
2023 11 30 09  04 22 58.585   +27 27 38.28  .34573 1.3307 174.1 22.7  516  90
2023 11 30 10  04 22 55.066   +27 27 35.76  .34610 1.3310 174.1 22.7  519  90
2023 11 30 11  04 22 51.555   +27 27 33.22  .34647 1.3314 174.1 22.7  522  90
2023 11 30 12  04 22 48.051   +27 27 30.66  .34684 1.3318 174.1 22.7  524  90
2023 11 30 13  04 22 44.555   +27 27 28.08  .34721 1.3321 174.1 22.7  527  90
2023 11 30 14  04 22 41.067   +27 27 25.48  .34758 1.3325 174.1 22.7  530  90
2023 11 30 15  04 22 37.585   +27 27 22.86  .34796 1.3329 174.1 22.7  533  90
2023 11 30 16  04 22 34.112   +27 27 20.22  .34833 1.3332 174.1 22.7  535  90
2023 11 30 17  04 22 30.646   +27 27 17.57  .34870 1.3336 174.1 22.7  538  90
2023 11 30 18  04 22 27.187   +27 27 14.89  .34908 1.3340 174.2 22.7  541  90
2023 11 30 19  04 22 23.736   +27 27 12.20  .34945 1.3343 174.2 22.7  543  90
2023 11 30 20  04 22 20.292   +27 27 09.48  .34982 1.3347 174.2 22.7  546  90
2023 11 30 21  04 22 16.856   +27 27 06.75  .35020 1.3351 174.2 22.7  549  90
2023 11 30 22  04 22 13.427   +27 27 04.00  .35057 1.3354 174.2 22.7  551  90
2023 11 30 23  04 22 10.006   +27 27 01.24  .35095 1.3358 174.2 22.7  554  90
2023 12 01 00  04 22 06.592   +27 26 58.45  .35132 1.3362 174.2 22.7  557  90
2023 12 01 01  04 22 03.185   +27 26 55.65  .35170 1.3365 174.2 22.7  559  90
2023 12 01 02  04 21 59.787   +27 26 52.82  .35207 1.3369 174.2 22.7  562  90
2023 12 01 03  04 21 56.395   +27 26 49.99  .35245 1.3373 174.2 22.7  565  90
2023 12 01 04  04 21 53.011   +27 26 47.13  .35282 1.3376 174.2 22.7  567  90
2023 12 01 05  04 21 49.634   +27 26 44.25  .35320 1.3380 174.2 22.7  570  90
2023 12 01 06  04 21 46.265   +27 26 41.36  .35357 1.3384 174.2 22.7  573  90
2023 12 01 07  04 21 42.903   +27 26 38.45  .35395 1.3387 174.1 22.7  575  90
2023 12 01 08  04 21 39.549   +27 26 35.52  .35433 1.3391 174.1 22.7  578  90
2023 12 01 09  04 21 36.202   +27 26 32.58  .35470 1.3395 174.1 22.7  581  90
2023 12 01 10  04 21 32.862   +27 26 29.61  .35508 1.3398 174.1 22.7  583  90
2023 12 01 11  04 21 29.530   +27 26 26.63  .35546 1.3402 174.1 22.7  586  90
2023 12 01 12  04 21 26.205   +27 26 23.64  .35584 1.3406 174.1 22.8  589  90
2023 12 01 13  04 21 22.887   +27 26 20.62  .35621 1.3409 174.1 22.8  591  90
2023 12 01 14  04 21 19.577   +27 26 17.59  .35659 1.3413 174.1 22.8  594  90
2023 12 01 15  04 21 16.275   +27 26 14.54  .35697 1.3417 174.1 22.8  597  90
2023 12 01 16  04 21 12.979   +27 26 11.48  .35735 1.3420 174.1 22.8  599  90
2023 12 01 17  04 21 09.691   +27 26 08.40  .35773 1.3424 174.1 22.8  602  90
2023 12 01 18  04 21 06.410   +27 26 05.30  .35811 1.3428 174.1 22.8  605  90
2023 12 01 19  04 21 03.137   +27 26 02.19  .35849 1.3431 174.1 22.8  607  90
2023 12 01 20  04 20 59.871   +27 25 59.05  .35887 1.3435 174.1 22.8  610  90
2023 12 01 21  04 20 56.612   +27 25 55.91  .35925 1.3439 174.0 22.8  613  90
2023 12 01 22  04 20 53.361   +27 25 52.74  .35963 1.3442 174.0 22.8  615  90
2023 12 01 23  04 20 50.117   +27 25 49.56  .36001 1.3446 174.0 22.8  618  90
2023 12 02 00  04 20 46.880   +27 25 46.37  .36039 1.3450 174.0 22.8  621  90
2023 12 02 01  04 20 43.651   +27 25 43.16  .36077 1.3453 174.0 22.8  623  90
2023 12 02 02  04 20 40.429   +27 25 39.93  .36115 1.3457 174.0 22.8  626  90
2023 12 02 03  04 20 37.214   +27 25 36.69  .36153 1.3461 174.0 22.8  629  90
2023 12 02 04  04 20 34.007   +27 25 33.43  .36191 1.3464 174.0 22.8  631  90
2023 12 02 05  04 20 30.806   +27 25 30.15  .36230 1.3468 174.0 22.8  634  89